Wind_Speed
4 3 2 4 5 5 7 7 7 6 5 5 3 2 4 5 6 3 3 6 2 1 7 6 6 7 8 10 7 7 7 9 10 7 8 9 9 9 8 9 7 6 8 11 18 22 20 24 31 34 34 31 27 27 35 39 37 37 35 30 27 25 24 23 22 21 20 19 17 15 14 14 13 13 12 10 9 8 9 10 10 9 8 9 8 8
4 4 6 6 8 7 6 6 6 5 3 2 2 3 4 5 6 3 3 7 3 3 6 3 3 8 9 10 7 6 7 10 13 11 11 12 10 9 8 10 8 7 8 9 14 18 21 27 29 30 31 25 19 17 20 25 26 30 32 30 29 26 25 24 23 22 21 20 19 17 16 16 15 14 12 11 10 10 11 11 10 9 8 8 8 7
2 3 7 7 8 6 4 5 6 4 3 2 2 1 4 4 4 5 4 4 1 3 4 5 5 9 11 11 7 6 9 11 14 15 15 15 13 10 11 11 9 9 9 8 10 14 20 26 24 23 24 21 17 14 13 15 18 25 29 28 28 27 26 25 24 23 21 20 20 18 17 16 15 14 12 11 11 12 12 11 9 8 8 7 7 6
1 5 7 7 7 6 3 3 7 4 1 2 3 2 4 2 1 4 5 4 3 2 5 6 6 8 9 8 6 6 8 9 12 14 11 11 12 11 12 12 12 11 11 10 10 11 15 18 17 18 19 18 16 15 16 17 18 22 26 27 27 27 27 26 24 23 21 20 19 16 15 15 14 14 13 12 12 13 11 10 9 8 8 7 7 6
6 6 4 6 6 7 4 2 6 3 2 3 5 5 5 3 4 7 4 5 6 4 4 3 4 6 5 5 6 6 5 8 9 7 4 5 8 9 10 11 12 12 12 12 12 11 11 11 14 17 18 18 18 17 18 18 18 20 23 25 25 25 26 25 24 23 22 21 19 16 14 13 12 13 14 14 14 14 12 11 10 9 8 7 6 5
8 5 5 6 3 5 5 3 4 6 3 4 5 9 9 7 8 9 3 4 5 5 3 1 3 5 5 4 6 6 5 8 5 4 6 7 9 11 11 12 12 11 10 10 10 10 9 10 14 18 18 19 20 19 18 18 18 19 22 24 23 23 24 24 24 24 23 22 21 18 17 16 15 15 16 17 16 14 12 11 10 9 8 6 6 5
4 3 6 6 5 5 4 4 5 7 4 3 5 10 11 9 8 8 2 3 0 3 3 3 4 5 6 4 6 6 5 7 4 3 7 7 10 12 12 11 12 11 10 10 9 10 10 11 15 19 22 24 22 19 19 19 17 17 21 23 23 23 23 23 23 23 23 22 21 20 20 20 19 19 18 16 15 14 13 12 11 10 9 7 7 6
3 5 5 5 5 5 3 4 6 8 7 3 5 7 9 8 8 6 4 4 4 3 4 4 4 3 6 4 7 6 4 6 5 2 7 9 10 12 12 12 12 12 12 11 11 11 10 14 18 22 24 22 17 17 19 18 15 16 20 23 22 22 23 23 23 23 22 22 21 20 20 20 20 20 18 15 14 13 13 13 11 10 10 9 8 8
4 6 7 7 5 4 5 5 7 9 5 6 6 6 7 7 7 5 6 4 3 1 5 5 2 2 5 5 6 4 3 5 5 2 5 10 11 10 11 11 12 12 12 12 11 11 13 17 21 22 19 14 12 15 17 17 15 17 21 23 23 23 23 23 23 23 21 20 20 20 19 19 18 17 16 15 14 14 14 13 12 11 11 10 9 8
3 6 8 8 5 5 7 6 9 11 6 5 5 5 3 3 3 4 5 4 1 1 5 6 2 1 4 5 5 4 3 4 5 3 4 10 10 9 8 9 11 11 11 11 10 12 15 17 18 18 14 11 10 12 14 15 16 18 22 24 23 23 23 22 22 22 20 20 20 19 20 19 18 16 15 15 14 14 13 12 12 13 13 11 9 8
2 1 4 5 5 6 6 5 8 12 9 2 4 4 4 4 3 3 2 3 3 2 7 7 6 4 3 5 4 2 2 4 5 4 5 9 10 9 8 9 11 10 10 11 10 11 13 12 10 9 8 9 9 10 12 15 16 18 21 23 22 22 22 22 22 21 20 20 19 19 20 19 17 16 16 16 16 16 15 14 15 15 14 13 11 10
3 1 1 3 6 5 4 3 4 7 5 2 3 3 3 2 3 4 4 3 3 5 6 5 5 5 3 5 4 4 6 6 5 6 8 11 11 10 9 10 10 10 11 10 9 10 9 5 4 6 7 8 10 10 12 15 17 18 20 21 21 20 21 21 22 21 20 20 19 18 18 18 16 16 17 18 18 18 18 17 17 16 16 14 13 11
3 3 4 4 4 5 5 2 3 2 1 4 3 4 3 1 3 2 3 0 2 6 5 3 3 3 4 6 4 6 9 7 6 7 9 11 11 10 10 11 11 11 11 11 10 8 4 3 4 5 8 9 11 11 12 14 17 18 19 20 20 19 21 21 21 21 20 19 18 18 17 16 16 17 18 19 19 19 19 18 18 17 16 15 13 12
3 5 3 1 3 4 8 4 2 1 3 5 5 4 4 2 2 1 3 1 3 6 3 3 3 2 4 4 4 7 9 9 8 8 9 9 10 9 9 10 11 11 11 10 9 7 5 4 5 7 9 10 12 12 11 13 16 18 17 18 19 18 19 21 22 21 20 19 19 18 17 16 17 18 19 19 19 19 19 17 17 16 15 14 12 11
1 4 3 4 2 2 7 8 6 4 4 4 4 5 4 4 4 3 3 3 4 4 3 2 2 2 2 3 4 6 7 7 5 3 6 6 6 6 7 9 10 11 10 9 8 8 7 7 9 11 12 13 14 13 12 12 15 17 17 17 19 18 18 21 22 21 21 20 20 19 18 18 19 20 20 20 19 18 18 17 16 15 13 12 11 10
2 4 7 4 1 3 4 5 4 6 3 2 3 5 2 4 5 2 3 4 3 1 2 2 2 3 3 4 4 4 5 3 2 2 5 4 2 2 4 5 6 7 7 5 5 6 5 7 12 13 14 15 16 14 13 15 17 17 17 17 19 19 18 19 20 21 21 20 20 20 20 20 20 20 20 20 19 18 17 16 14 13 11 10 9 8
2 4 6 4 3 4 5 5 4 4 3 1 2 3 4 4 7 4 2 0 3 1 2 1 2 4 3 3 4 4 5 3 2 2 5 4 4 5 4 4 4 3 3 4 3 4 6 9 12 13 14 15 15 13 13 17 18 16 15 17 18 19 18 18 19 20 19 19 19 20 20 21 21 20 19 19 19 18 17 15 14 12 11 10 8 7
3 3 6 3 4 6 3 3 1 1 4 4 3 5 2 2 4 4 2 2 4 2 4 1 1 3 1 1 3 3 3 4 5 3 5 6 6 6 7 7 8 8 8 8 8 7 7 10 13 14 15 16 17 14 13 16 17 15 14 15 17 18 18 18 18 19 18 18 18 18 19 20 20 19 18 18 18 17 16 16 14 11 10 10 8 6
3 2 6 3 4 6 3 2 2 5 1 3 4 4 3 2 1 1 2 1 1 2 3 3 2 2 3 3 2 1 1 4 6 6 7 7 5 6 7 8 9 9 8 7 8 7 6 9 13 15 17 18 19 18 15 14 14 14 13 14 15 16 16 15 15 16 17 17 18 18 19 20 20 19 18 17 17 16 15 15 13 11 10 9 8 7
2 1 5 4 4 4 5 3 1 3 3 2 2 2 2 3 4 2 2 3 3 2 2 2 3 2 4 4 3 1 3 5 5 5 7 7 5 5 5 6 6 5 6 5 6 6 5 8 13 16 16 17 19 20 18 16 15 13 11 11 13 13 12 13 14 15 15 17 18 19 19 19 20 19 18 16 16 15 14 12 11 10 10 9 8 7
3 2 3 5 5 2 2 2 2 3 2 1 2 2 1 1 2 2 1 1 3 3 2 1 1 5 5 2 2 1 4 6 5 6 6 5 6 6 5 6 5 3 3 4 4 5 6 9 13 15 16 17 17 17 18 18 17 16 13 12 15 15 15 17 16 12 15 17 17 18 18 19 19 19 17 16 15 14 12 11 9 10 10 9 8 7
2 2 2 2 5 2 3 5 1 1 2 3 4 4 3 2 4 2 1 1 2 3 3 4 2 6 4 1 1 2 5 6 7 8 6 6 7 7 7 6 4 2 3 3 4 5 6 9 13 14 16 17 17 16 16 15 14 15 14 12 12 14 17 19 16 14 16 17 16 16 17 18 19 18 16 15 15 13 11 10 10 10 11 9 8 7
3 3 2 1 2 3 7 7 2 2 1 1 1 3 4 3 4 5 3 3 2 2 2 3 1 5 3 0 1 4 6 7 7 8 7 6 7 8 6 4 4 4 4 4 5 5 6 9 13 15 15 17 18 18 16 14 12 12 12 12 14 17 20 19 16 14 16 16 16 17 18 18 19 18 16 15 14 13 11 10 10 11 10 8 7 6
2 3 1 2 4 4 6 6 4 3 4 3 3 2 2 2 3 5 5 4 3 3 2 2 1 5 2 2 2 3 6 7 6 5 7 6 5 7 7 3 4 5 6 7 6 5 7 9 11 13 14 16 17 17 16 15 14 13 13 14 16 18 18 17 16 16 17 17 17 18 19 19 19 18 16 15 13 12 11 11 11 10 9 7 6 7
1 1 1 1 3 4 5 5 5 5 4 2 2 4 3 1 4 4 2 3 2 3 4 4 3 4 0 3 2 3 7 8 6 5 6 6 6 7 8 7 7 7 8 8 7 7 8 8 8 9 12 14 15 15 15 14 13 11 10 12 16 18 19 19 19 18 17 16 16 18 19 19 18 17 16 15 13 12 12 12 11 9 7 7 8 8
2 1 2 3 3 3 2 2 3 2 2 1 2 5 5 2 3 4 3 4 1 3 2 4 4 3 3 5 4 4 7 8 7 6 6 6 6 7 8 7 6 6 8 8 8 7 7 7 7 9 12 14 15 16 17 15 12 11 10 11 16 20 21 22 22 20 18 16 16 17 18 18 17 16 16 15 14 14 13 12 11 9 7 7 9 9
4 2 1 4 4 4 5 5 4 2 1 1 4 6 6 5 3 3 5 3 3 2 1 3 4 3 5 6 5 5 6 7 6 6 6 6 6 6 8 7 5 5 7 7 7 7 8 8 8 10 14 15 17 20 20 18 15 12 12 13 15 18 19 19 20 20 20 19 18 16 16 16 15 15 16 16 16 15 12 10 8 7 7 7 8 9
5 3 2 5 3 1 3 4 4 1 4 2 3 6 7 8 6 4 4 3 5 4 2 5 3 6 6 6 6 6 6 6 5 6 6 5 5 6 7 7 7 8 7 7 7 7 8 9 7 10 15 17 18 21 22 19 17 16 16 16 16 16 18 19 20 20 19 18 17 15 14 13 14 15 16 16 14 12 10 8 6 4 4 6 7 8
5 2 1 4 3 4 4 4 3 3 4 4 4 5 7 8 6 4 2 2 4 5 3 3 4 5 5 7 7 6 7 7 6 6 6 6 6 7 8 9 9 9 8 8 7 7 8 9 8 11 16 19 21 23 23 22 21 20 20 19 18 19 19 21 21 19 17 15 14 14 14 13 13 12 13 13 11 10 9 9 7 5 4 5 6 7
4 2 2 3 3 5 6 6 4 5 4 3 6 7 7 7 6 6 2 1 3 4 4 5 7 4 1 4 7 7 7 7 7 7 7 8 8 8 8 9 9 8 7 7 6 7 7 7 9 14 18 21 22 22 22 23 23 24 24 23 23 22 21 22 21 19 17 16 16 15 15 14 12 11 11 11 12 11 9 9 9 8 5 3 3 3
3 2 1 3 3 4 6 6 5 5 5 4 6 9 10 9 7 6 4 2 2 4 6 8 7 3 4 4 8 8 7 8 8 8 8 8 7 8 9 10 9 9 8 8 7 7 8 7 9 14 18 20 21 22 22 23 25 28 27 26 26 25 25 26 26 24 23 20 18 18 17 16 16 16 14 13 13 12 10 10 10 9 7 5 4 3
3 3 1 3 3 2 4 5 5 4 5 5 7 11 11 7 4 4 3 3 3 2 8 7 5 1 2 5 8 8 8 9 9 8 8 7 8 9 9 9 10 9 9 9 9 8 9 9 10 13 18 20 21 23 23 24 28 30 29 28 28 28 30 31 30 30 27 24 22 21 19 18 18 18 17 14 12 12 10 10 9 8 7 6 6 6
2 3 2 3 2 2 4 4 5 4 3 2 4 7 7 4 3 4 3 5 6 1 4 4 3 4 4 6 8 8 9 9 9 7 6 7 9 9 10 10 10 10 9 9 8 8 9 13 15 17 21 22 24 25 24 26 30 30 28 29 30 31 35 35 34 33 31 29 27 26 24 22 21 21 20 16 14 12 11 10 9 8 6 6 6 6
2 4 2 1 2 0 4 4 3 1 1 1 2 4 5 5 4 3 3 6 7 3 2 3 4 6 6 6 8 9 8 8 8 8 8 7 7 7 9 10 9 9 8 7 7 7 9 16 19 20 22 24 26 27 27 29 30 29 30 32 32 34 37 37 35 34 33 32 31 30 28 27 26 25 24 22 20 18 16 15 14 12 10 9 8 8
3 3 2 1 2 2 2 3 2 1 1 1 1 4 5 4 4 2 3 6 8 5 6 8 7 7 7 7 8 10 10 10 10 10 10 9 7 6 8 8 8 9 8 6 7 7 8 13 17 19 22 24 27 29 29 29 30 31 32 34 34 34 35 36 36 34 33 32 31 30 29 29 28 27 25 24 23 22 21 20 18 16 15 13 12 12
5 4 2 2 2 2 1 2 1 1 2 2 2 5 5 4 5 3 1 6 8 5 6 9 8 8 8 9 8 9 10 11 11 10 9 8 7 6 7 6 6 7 7 5 5 5 8 13 16 18 22 25 28 31 31 31 31 32 32 33 33 32 31 32 33 32 31 31 29 28 27 26 26 25 24 23 22 22 21 20 18 17 15 14 14 13
5 4 3 2 1 2 2 1 1 0 1 2 2 4 4 3 3 3 1 3 5 3 5 8 10 8 7 7 7 7 9 12 11 8 7 7 6 6 8 8 8 8 8 7 6 7 11 16 19 21 24 26 27 29 30 31 32 32 31 31 32 32 30 29 30 29 28 28 26 25 25 23 23 23 22 22 21 21 20 18 17 17 15 14 13 13
4 3 4 3 1 2 3 2 1 1 1 1 2 4 3 3 3 2 1 2 4 3 4 7 10 9 7 6 4 4 5 10 8 3 4 6 5 6 7 10 12 12 12 11 11 13 16 19 20 22 26 28 27 26 28 30 30 31 29 27 29 32 31 28 26 25 26 25 24 23 22 21 21 21 21 21 20 19 17 16 15 15 14 13 13 13
7 4 4 4 2 2 3 2 1 1 1 2 5 7 5 3 2 0 1 2 3 2 2 6 9 9 9 7 4 3 3 6 4 1 2 4 5 5 6 9 13 13 12 12 13 15 17 20 22 24 26 27 25 24 27 30 31 32 28 23 26 30 30 26 23 23 23 22 22 21 20 20 20 19 19 19 18 17 16 15 14 13 12 12 12 12
7 5 4 4 3 3 3 2 1 1 0 3 7 9 8 3 1 2 2 2 3 2 2 5 8 7 5 3 2 2 3 4 5 4 1 2 3 5 6 8 10 10 11 13 14 16 18 21 23 25 25 26 24 24 27 30 32 31 27 24 26 28 26 23 21 20 20 20 20 20 20 19 19 18 18 17 15 15 14 13 12 12 12 12 12 12
4 3 3 4 3 3 3 3 1 1 1 4 8 10 7 3 1 2 1 2 2 3 3 4 5 4 3 2 2 3 4 5 7 7 4 2 1 4 6 8 8 8 9 11 13 17 20 20 22 23 23 24 25 26 28 31 31 28 25 25 25 23 21 19 18 18 18 18 18 19 18 18 17 17 16 16 14 14 13 13 12 12 12 13 13 13
3 3 3 3 2 2 2 3 1 1 1 5 11 10 4 0 0 1 2 2 0 3 5 4 5 5 5 5 5 6 8 10 10 7 4 2 2 3 5 9 10 9 10 11 13 16 20 20 21 22 22 23 25 26 28 30 29 25 23 24 22 19 17 16 16 16 17 17 18 18 17 17 17 16 16 15 14 14 14 13 13 13 13 14 14 15
2 2 2 2 1 2 3 3 2 0 2 8 11 7 2 2 1 2 2 3 2 4 5 5 4 5 7 8 9 10 10 10 8 6 4 3 3 3 6 10 10 9 9 11 13 16 20 20 20 20 21 22 24 24 26 28 27 23 23 22 19 16 16 15 15 16 16 17 18 18 18 17 17 17 16 15 14 14 14 14 13 14 15 15 16 16
3 2 2 1 1 2 3 3 2 1 4 7 6 2 1 2 2 2 1 3 3 3 4 5 5 5 7 10 11 10 9 7 6 6 5 4 4 5 7 9 11 11 11 12 14 18 21 20 19 19 19 21 22 22 23 25 25 24 22 19 16 15 15 15 15 16 16 17 17 17 17 17 17 17 16 16 15 15 15 15 15 15 16 16 17 17
2 2 3 1 1 2 3 2 0 1 4 4 3 1 2 2 2 3 4 4 4 3 3 5 7 6 7 10 11 9 7 6 5 6 6 4 5 6 8 9 10 12 13 14 16 19 22 22 21 20 19 19 21 22 21 22 23 23 20 17 15 15 14 14 15 16 17 17 17 16 15 15 15 15 16 15 15 15 15 15 15 15 15 16 16 16
1 2 3 2 2 3 3 2 2 2 4 4 4 3 4 5 5 5 7 6 5 5 5 6 8 8 8 9 10 7 5 5 5 6 5 5 5 7 9 10 11 12 14 15 17 20 22 22 22 21 20 18 19 21 21 21 22 21 18 16 15 15 14 15 16 17 17 16 16 15 14 14 14 14 14 14 14 13 13 13 13 13 13 13 13 13
1 3 4 3 2 2 2 2 4 3 3 4 5 5 6 7 6 6 8 7 6 7 8 8 9 9 8 9 9 7 5 5 6 6 5 5 5 6 8 10 11 12 13 14 17 19 21 21 20 20 19 18 17 19 20 20 21 20 18 16 16 14 14 15 15 16 15 15 15 15 14 13 13 13 13 13 14 14 14 14 14 14 13 12 12 12
2 3 3 2 3 2 1 3 4 3 2 4 4 4 5 7 8 8 8 8 9 9 10 10 10 9 7 7 8 8 6 6 6 6 4 4 4 5 7 9 10 12 13 14 16 18 20 20 20 19 18 17 16 17 18 19 19 19 18 17 16 14 14 14 14 14 14 14 15 15 14 13 14 14 14 14 15 16 16 16 16 16 15 13 11 12
2 3 2 2 3 3 1 1 2 4 5 6 5 4 4 4 7 8 8 9 10 10 10 11 11 10 9 8 8 9 7 5 5 7 5 3 4 5 7 9 11 12 13 13 15 17 18 19 19 19 18 17 16 16 17 18 18 17 17 17 15 13 13 13 12 12 12 13 15 15 14 13 13 13 13 14 16 16 15 15 15 15 14 12 11 11
2 2 1 2 4 1 2 2 2 3 2 1 2 4 5 3 5 8 7 7 8 8 8 8 8 9 9 9 10 10 7 5 6 8 7 5 5 7 8 11 12 13 13 14 16 16 16 17 17 18 17 16 15 15 16 16 15 15 15 15 14 13 11 10 10 10 11 12 13 13 13 12 12 11 12 14 16 16 15 14 13 13 13 12 12 11
2 3 2 2 3 2 5 5 4 4 3 3 1 2 4 3 3 6 6 5 5 6 8 8 6 5 5 5 8 11 9 7 8 10 8 6 8 9 10 10 11 12 12 13 14 14 14 13 14 15 15 14 14 14 14 14 13 13 13 13 13 13 11 10 10 10 10 11 12 12 12 11 11 12 13 15 16 17 17 17 17 16 15 15 14 13
Wind_Direction
130 135 197 202 192 179 200 198 177 175 142 142 167 205 226 252 273 237 223 259 213 279 282 261 257 270 274 279 261 220 207 212 219 210 206 206 197 195 184 176 162 142 153 145 142 144 155 174 173 176 188 190 185 194 198 193 190 185 182 182 183 189 192 192 191 190 190 188 185 186 183 183 187 192 189 184 181 165 155 156 156 162 167 170 172 176
103 163 222 205 184 180 187 181 154 145 134 139 201 276 275 246 265 276 242 257 198 166 260 274 309 287 273 274 263 199 188 215 217 206 208 206 198 192 173 160 149 147 155 147 152 159 172 187 186 185 191 199 210 213 199 192 187 178 176 178 180 185 187 189 190 187 188 190 190 186 182 182 183 183 182 177 172 163 160 161 162 166 168 169 172 176
74 212 224 199 183 159 115 125 127 134 156 140 139 248 276 257 284 297 278 284 122 149 259 304 320 286 277 276 260 196 189 216 216 205 205 202 192 184 170 161 153 156 160 158 161 169 185 194 192 191 193 198 210 211 200 195 186 175 175 177 177 181 184 186 187 186 186 189 192 190 185 182 178 175 175 172 168 164 165 167 168 173 171 171 175 179
197 243 219 183 160 141 117 123 120 106 123 154 159 195 264 266 356 289 295 327 319 239 251 283 305 280 282 295 281 232 215 233 231 215 208 198 188 178 170 167 166 164 161 164 166 173 195 199 191 193 198 203 204 197 194 192 182 174 174 176 177 179 181 183 185 187 186 185 187 189 186 179 172 171 170 167 166 165 167 171 172 173 172 171 176 182
223 237 171 131 143 161 186 175 135 154 275 249 205 207 245 244 210 236 281 338 323 307 240 248 330 297 293 320 299 285 267 260 246 216 186 166 162 155 158 169 175 172 163 164 167 176 197 198 192 200 204 204 201 195 192 187 179 173 173 178 179 176 179 182 184 186 184 181 180 178 172 168 165 167 170 169 167 168 168 170 170 168 169 170 173 180
245 235 132 120 149 165 182 217 186 180 224 296 235 212 222 223 227 242 280 15 356 334 288 89 28 297 305 319 286 309 316 285 267 182 166 151 143 146 159 172 175 172 165 162 167 177 189 190 196 206 208 206 203 194 188 183 177 174 174 178 178 175 178 182 185 187 185 182 180 172 163 163 165 166 172 172 167 166 165 162 162 161 161 163 163 167
250 198 150 157 163 150 170 238 226 167 141 302 244 204 208 212 229 246 217 97 166 266 293 59 103 268 311 324 289 308 317 304 320 163 172 152 148 159 167 174 169 166 162 160 173 183 183 187 199 209 210 207 202 191 182 179 177 174 172 175 178 178 180 184 186 186 186 183 181 176 170 169 169 168 171 171 165 162 158 153 153 153 151 150 149 150
183 157 159 159 145 148 176 243 223 154 127 256 237 178 180 199 219 223 155 160 231 262 319 19 120 239 296 291 286 306 335 339 355 164 176 162 161 165 169 173 168 166 164 165 179 184 185 196 203 208 209 204 194 183 176 171 171 171 170 174 179 181 184 187 186 185 186 183 178 176 174 172 172 170 168 168 167 162 156 153 152 149 148 146 145 144
166 168 180 162 140 172 204 211 186 155 158 241 219 166 168 183 194 180 150 184 243 348 313 304 135 206 276 277 301 339 20 349 344 313 198 178 171 166 166 167 164 165 167 171 179 182 193 204 205 207 206 194 182 180 173 164 163 165 168 175 180 183 187 189 187 185 184 183 179 177 175 172 172 172 170 170 170 165 160 159 158 158 157 153 152 150
192 190 181 156 152 203 217 203 167 167 205 227 165 138 111 112 130 132 143 163 86 56 258 259 194 197 273 288 313 5 30 326 315 309 221 189 178 170 162 155 159 165 167 176 183 190 203 207 204 203 196 176 172 175 167 159 157 159 166 175 179 183 187 187 187 185 184 184 183 181 177 173 172 172 172 171 168 166 164 162 164 167 166 165 163 160
267 216 151 149 177 199 205 198 178 185 200 155 107 91 59 46 58 72 100 103 86 272 252 232 200 189 265 286 276 266 307 289 285 282 225 195 182 176 167 153 158 166 171 179 187 201 211 208 197 192 172 154 159 166 163 158 156 160 167 172 175 182 187 187 186 187 187 186 186 184 179 176 175 174 170 166 162 162 163 160 161 165 168 170 170 167
329 10 177 218 205 177 164 205 222 214 201 111 82 86 84 320 23 40 355 49 108 257 261 228 190 163 209 261 257 265 284 273 252 245 224 203 185 176 175 164 161 173 178 179 188 204 206 184 152 148 139 142 153 160 161 158 159 162 165 170 174 180 186 187 188 191 191 187 186 186 182 181 182 179 173 166 161 162 161 158 158 162 166 169 172 172
306 227 239 268 235 176 161 225 303 328 113 124 125 100 99 306 20 31 300 38 194 254 252 198 164 154 220 245 257 290 298 283 250 236 226 213 195 180 179 173 169 178 181 181 189 194 171 102 95 123 129 132 141 150 155 156 160 159 163 171 173 177 185 187 188 191 190 188 188 186 184 186 186 183 178 170 165 164 164 161 160 163 165 169 173 174
302 299 280 258 276 196 160 182 256 250 153 148 157 146 137 138 85 265 270 266 254 268 255 191 181 227 268 260 271 299 303 291 268 236 216 214 205 189 181 175 175 184 187 187 181 159 134 134 136 129 124 122 127 138 146 150 156 160 163 169 172 175 182 184 185 188 189 188 189 188 187 189 189 186 181 175 170 169 169 166 164 165 166 168 169 170
188 315 259 190 254 190 170 196 201 162 152 168 164 140 144 158 151 199 222 206 247 272 304 289 199 180 229 261 282 301 305 301 294 224 181 200 216 195 176 176 181 189 191 185 168 157 161 155 137 129 125 123 124 129 140 148 154 161 164 168 175 179 180 181 182 183 187 187 186 188 190 191 192 189 182 177 177 177 176 172 169 167 167 166 163 165
149 256 253 241 240 157 194 223 161 115 129 209 143 111 161 188 154 155 190 176 186 242 325 313 239 206 221 264 290 318 320 325 11 88 140 162 204 155 154 189 202 203 203 195 161 148 141 117 113 119 124 128 128 128 140 149 152 158 163 169 177 179 179 182 181 182 185 185 184 187 188 190 191 189 183 179 181 184 183 179 173 170 169 165 160 161
111 265 275 309 300 210 210 215 169 154 186 187 133 170 219 174 128 119 196 115 82 141 278 297 259 294 320 295 295 334 341 353 43 110 137 109 59 64 60 22 355 349 351 355 34 91 95 92 95 104 114 125 129 125 129 144 153 159 163 167 173 177 180 181 181 180 180 179 181 183 185 188 190 188 186 183 183 185 184 181 176 170 169 167 161 158
145 267 284 300 280 267 225 184 203 194 149 127 181 210 195 88 91 112 161 7 46 207 269 332 271 293 339 283 302 340 344 356 17 56 99 79 70 78 71 60 54 54 48 37 43 52 60 74 81 90 102 116 129 129 119 129 149 164 168 169 173 176 178 181 181 175 172 172 174 177 182 186 189 190 189 186 185 184 182 181 178 175 173 171 166 161
142 280 294 269 251 293 342 98 343 332 26 140 178 174 110 122 207 89 144 153 113 218 281 326 310 259 202 225 287 347 348 3 9 27 55 59 71 78 67 65 68 76 77 69 72 68 58 76 89 97 102 110 123 130 125 123 137 156 169 174 175 174 174 175 169 158 157 165 172 177 182 185 187 187 186 185 183 180 181 182 180 179 181 178 172 168
107 134 286 278 260 303 359 32 290 300 337 34 126 114 57 138 167 164 150 162 162 175 244 314 331 272 227 219 209 242 348 18 20 31 46 41 33 39 55 61 56 76 98 96 101 104 98 98 102 107 110 110 113 119 124 127 129 139 149 142 132 131 129 117 109 123 147 167 175 179 181 181 182 183 182 183 181 177 178 182 181 183 188 185 177 173
62 100 243 283 311 353 2 315 241 199 178 107 140 182 300 80 134 154 94 92 124 145 180 177 288 267 249 227 225 302 9 29 54 68 62 51 38 26 45 66 46 35 86 96 100 100 100 100 99 104 111 115 114 114 118 119 120 127 131 120 112 113 116 108 106 137 169 174 176 177 176 176 178 179 181 183 181 177 177 179 180 185 188 183 176 176
119 125 182 300 349 8 256 262 293 100 177 170 168 180 181 135 123 137 263 300 102 126 169 161 208 268 267 255 327 35 46 48 72 88 76 64 68 52 39 60 74 53 61 84 87 84 95 101 102 107 113 118 120 121 122 123 126 133 136 136 135 138 140 135 137 164 175 170 172 175 174 175 177 179 182 182 180 179 177 174 175 179 180 176 175 180
141 115 125 261 290 254 258 268 303 9 32 104 144 149 143 126 120 135 196 233 113 110 150 122 164 269 275 83 64 70 75 70 78 93 87 77 87 85 69 64 93 86 63 64 73 79 90 101 110 117 122 125 127 131 139 147 158 162 157 156 151 143 141 142 145 162 173 172 171 173 175 179 180 179 180 181 182 181 174 167 167 169 170 170 175 177
97 86 96 284 302 303 298 304 320 358 44 39 355 39 108 147 137 143 174 174 139 155 149 100 247 266 289 68 91 97 97 87 77 85 92 87 76 80 78 53 50 61 55 49 51 60 72 83 99 111 119 125 130 135 140 143 152 165 171 168 157 147 145 147 149 161 174 173 168 170 177 180 179 178 179 180 182 179 170 161 159 161 163 166 169 164
55 79 118 81 359 341 336 336 336 349 30 55 316 329 339 95 106 117 131 92 106 205 153 134 224 259 153 104 115 103 91 79 61 58 78 83 69 62 55 37 27 37 49 50 46 52 60 64 77 99 112 117 119 122 123 125 139 155 162 159 154 152 153 151 152 160 165 163 165 172 175 173 173 174 176 175 175 171 164 157 156 158 159 161 156 148
113 135 144 139 159 187 201 252 254 266 331 342 326 341 342 7 110 147 131 89 180 246 121 142 211 240 147 128 124 109 90 78 69 60 57 64 75 80 73 56 32 34 53 55 49 52 58 54 52 63 80 93 99 101 102 105 118 130 129 130 141 149 149 149 153 158 157 163 173 174 169 166 166 167 167 166 164 162 159 159 161 159 161 163 153 145
108 82 87 124 146 188 198 226 239 201 89 357 330 346 343 326 334 101 97 104 185 172 14 224 199 160 150 143 131 117 93 83 80 66 55 53 59 74 81 75 62 56 56 55 53 57 60 56 51 55 63 76 89 93 96 98 102 109 110 113 127 135 133 137 149 154 159 169 171 161 156 158 157 155 154 153 150 149 150 161 169 164 171 181 169 158
103 62 50 96 77 307 244 263 285 61 94 85 356 349 342 332 349 69 106 159 152 121 292 262 185 142 158 151 135 126 107 96 86 66 62 66 66 72 79 82 81 71 60 56 52 53 62 59 51 58 63 68 77 83 88 90 90 92 95 99 109 114 114 124 138 146 155 159 151 141 143 146 145 147 151 152 153 153 154 161 170 170 194 214 201 184
112 91 103 105 54 6 348 334 360 80 99 84 53 18 353 348 12 70 138 196 122 127 212 219 134 133 149 140 132 130 120 109 94 80 75 73 70 71 75 76 73 68 69 68 52 46 64 70 64 62 65 68 71 75 80 83 84 87 88 90 96 102 111 124 131 137 142 137 126 127 136 140 143 149 154 155 162 172 169 163 167 184 219 246 232 212
108 88 109 115 70 20 3 356 35 85 99 65 42 26 6 0 25 56 62 321 88 124 167 126 101 85 55 119 118 106 104 102 89 80 76 70 67 70 74 70 61 56 58 59 54 55 56 58 66 68 67 69 71 73 78 80 82 84 82 84 90 95 106 116 117 115 112 105 101 109 120 128 134 139 143 146 150 158 159 152 158 174 186 206 224 223
84 105 127 100 76 4 352 355 17 63 97 81 37 19 8 6 18 31 34 7 35 106 113 98 94 51 355 78 101 94 94 95 86 81 76 67 62 67 69 64 58 50 40 28 33 54 51 37 54 68 69 70 72 74 77 78 80 80 78 80 84 89 98 104 102 98 96 94 95 102 107 113 119 123 129 136 140 142 141 139 142 147 142 128 117 108
64 116 118 76 85 324 334 346 342 18 77 71 31 11 359 1 6 348 353 351 334 119 119 109 114 111 25 86 93 82 75 76 73 71 72 67 61 62 61 59 59 55 49 37 21 29 47 43 41 59 68 70 72 74 77 79 81 80 78 80 82 85 90 92 89 87 86 86 91 96 98 101 105 109 115 122 128 133 135 135 134 134 130 114 101 98
86 116 116 91 104 281 316 338 335 5 45 17 359 355 338 322 308 309 336 355 336 323 139 144 152 141 130 117 102 81 63 61 58 50 51 61 64 62 57 55 54 48 49 49 24 17 52 63 57 60 69 73 73 74 77 81 82 82 82 83 83 83 85 85 82 82 80 79 83 86 90 96 96 94 96 102 108 113 118 117 111 110 109 95 84 86
76 97 106 106 108 288 317 344 5 46 69 262 286 325 319 309 327 355 32 7 346 356 98 80 93 111 118 117 112 103 84 68 60 49 41 48 62 67 61 57 55 49 44 41 22 16 56 76 76 74 74 75 77 77 78 79 81 83 83 83 81 81 82 82 80 79 77 77 78 79 83 88 88 85 85 88 91 93 94 93 89 86 85 81 78 75
110 100 90 77 96 107 345 11 72 170 267 262 296 343 337 322 338 18 71 34 17 43 81 71 67 77 86 89 97 105 100 86 71 54 39 35 42 65 69 58 54 56 49 34 14 6 40 72 80 80 78 79 82 81 80 79 80 81 81 80 79 77 78 80 78 76 75 75 75 75 78 80 80 79 77 77 80 82 80 79 78 75 71 70 71 69
134 127 106 84 91 112 65 42 108 210 292 317 347 360 360 355 352 345 46 40 27 34 80 85 80 73 81 92 98 105 107 95 75 55 40 30 24 45 62 48 36 49 52 44 25 15 45 69 76 80 82 84 84 84 83 82 81 79 78 78 77 74 74 76 76 74 73 72 71 71 72 73 73 73 70 68 69 69 66 65 65 63 61 62 65 64
124 132 119 84 89 127 115 74 76 219 344 13 12 355 344 337 347 334 308 14 23 46 96 104 104 98 92 97 105 116 111 93 74 47 30 27 22 40 62 55 39 33 34 43 65 75 79 81 81 84 87 87 85 86 88 87 84 80 77 77 77 75 73 72 73 74 73 71 69 67 66 66 67 67 65 63 61 59 55 52 49 47 45 46 49 48
79 123 135 116 98 97 102 93 55 24 351 351 316 309 304 278 278 277 255 339 9 60 110 118 119 120 119 116 130 161 108 83 77 45 12 21 28 44 59 59 50 39 32 39 56 72 82 86 86 87 89 89 87 89 90 89 87 83 79 78 79 78 74 71 71 73 73 71 69 66 64 64 63 62 60 59 57 56 53 48 43 37 32 31 31 31
41 57 96 93 71 67 93 114 104 138 209 296 306 310 320 297 263 38 77 333 340 15 115 128 126 129 135 139 164 197 107 93 112 156 348 4 29 43 53 63 60 53 49 50 52 59 73 83 87 88 89 89 90 92 94 92 90 86 81 78 78 77 75 74 73 72 72 71 69 66 64 62 61 60 59 58 56 53 49 46 42 36 29 26 23 20
26 24 48 64 63 61 80 95 64 66 229 319 315 316 321 302 208 93 50 323 331 18 86 124 125 125 128 133 130 65 85 122 147 149 190 303 14 41 51 66 68 63 62 62 64 71 78 82 84 85 87 89 91 94 95 94 90 87 84 80 76 75 77 80 78 75 74 71 68 65 62 59 58 58 57 57 54 51 46 40 35 29 24 21 18 12
13 19 49 78 80 54 67 91 54 330 289 324 318 312 312 302 194 96 36 298 335 60 83 101 104 87 41 30 59 55 65 100 118 131 167 222 44 55 61 73 81 81 74 69 72 80 84 86 88 88 90 93 95 94 93 91 89 88 87 84 81 79 81 81 79 77 75 71 68 65 61 57 55 53 53 51 46 44 42 35 28 24 20 16 12 7
11 20 25 51 62 42 76 98 47 279 266 338 325 309 301 43 151 296 309 299 330 102 98 83 74 68 54 56 77 90 95 102 113 131 158 157 119 100 93 92 91 88 82 77 77 82 87 90 93 93 94 95 96 94 91 89 89 89 88 86 86 85 82 78 75 74 72 70 68 66 62 60 58 55 53 49 43 41 40 35 29 24 20 14 9 6
23 48 21 3 12 40 57 55 38 208 325 342 336 326 4 55 272 265 313 355 55 104 101 79 64 81 92 86 84 92 100 105 115 126 126 120 124 121 111 107 103 94 89 86 85 90 95 95 93 94 95 94 92 90 86 85 86 86 83 83 84 83 79 76 75 74 73 70 69 67 65 64 61 59 56 52 47 44 40 36 30 24 20 14 9 5
20 77 114 326 337 52 63 48 36 295 312 332 343 352 352 326 266 241 348 37 52 75 90 82 67 77 102 104 97 94 96 98 105 110 104 94 97 96 96 100 100 98 100 101 99 102 104 103 99 96 94 92 88 83 78 79 81 80 78 78 80 79 80 82 82 79 75 71 66 62 59 57 54 51 47 44 40 37 34 30 24 19 15 10 5 1
29 108 133 116 34 73 95 92 49 299 309 328 348 347 351 15 41 67 78 73 54 48 75 92 88 82 91 99 97 89 85 85 86 94 95 84 77 79 81 83 86 94 104 109 109 110 110 109 105 101 97 93 89 83 77 75 75 76 75 73 72 75 80 83 82 79 74 69 64 59 55 52 49 45 41 38 34 30 26 21 16 13 10 6 2 360
76 92 97 90 52 54 64 51 18 349 340 353 9 15 34 52 59 70 78 74 60 61 74 89 97 95 90 93 94 85 81 83 74 70 76 74 65 72 80 78 76 87 103 111 112 113 114 110 107 103 99 95 90 85 80 74 72 74 74 69 66 70 76 78 77 75 71 64 58 53 51 51 50 47 42 37 33 28 25 19 12 9 6 2 1 360
350 73 77 73 58 56 50 357 346 340 330 348 18 41 51 55 60 69 79 81 76 76 78 82 91 94 90 94 99 96 88 86 80 68 62 64 65 70 78 79 76 86 106 120 121 120 118 113 110 106 103 99 93 87 81 75 73 74 73 68 67 69 73 73 71 70 67 61 53 49 49 48 46 41 38 37 35 32 29 25 20 15 10 5 0 356
5 74 75 65 61 80 193 284 315 334 347 359 20 47 58 66 72 73 78 86 81 75 77 80 85 89 89 92 100 100 89 83 92 94 80 69 75 76 76 80 85 95 110 124 128 126 122 118 116 114 110 106 100 92 85 80 77 74 70 67 65 64 65 65 62 60 60 56 49 45 44 41 34 33 38 39 35 30 26 23 22 20 18 16 8 358
360 46 52 60 55 47 340 293 352 32 36 21 17 25 31 59 85 86 82 85 85 80 78 77 80 92 104 107 108 105 99 97 110 112 106 93 88 84 82 86 94 101 110 121 127 127 125 124 123 121 117 115 110 100 93 89 84 78 71 65 59 55 57 58 55 55 57 53 45 40 36 31 28 33 39 34 27 24 21 20 19 16 15 19 18 7
47 83 102 80 71 38 251 217 144 99 97 44 8 18 4 12 87 96 91 88 91 95 97 90 84 91 104 118 127 122 117 124 123 115 112 112 107 100 96 97 98 101 108 117 123 125 125 127 129 127 126 125 120 111 104 98 92 84 73 64 54 48 50 55 59 65 67 59 47 37 32 32 33 35 32 23 17 16 14 13 16 15 10 11 12 9
120 154 168 125 123 218 237 210 160 116 140 190 199 12 347 348 78 103 107 107 108 116 121 118 110 96 87 109 135 135 132 136 134 122 116 117 116 111 108 107 106 107 111 117 121 122 124 130 134 134 133 132 128 119 111 104 96 87 75 62 50 43 47 59 70 75 74 62 47 37 35 38 35 28 21 15 15 14 9 6 7 9 9 6 2 360
Height
761 767 772 772 773 772 770 770 770 772 773 774 777 778 779 780 775 771 770 763 760 765 763 757 758 757 751 747 746 748 750 751 750 751 752 751 751 751 751 753 755 758 760 762 762 762 763 763 761 761 761 759 758 757 759 764 766 767 773 778 783 787 790 793 795 797 800 802 804 806 808 810 812 814 816 818 819 821 822 823 824 825 826 827 827 828
762 769 771 769 769 766 766 768 770 772 774 774 776 777 778 780 775 768 768 762 759 766 763 757 759 757 750 747 745 746 750 750 746 747 748 747 748 749 749 752 755 757 759 761 761 761 762 762 761 761 761 762 763 762 765 769 771 772 774 777 780 784 787 791 794 796 798 801 803 805 807 809 811 814 815 817 819 820 822 823 825 825 826 826 827 828
768 770 768 765 765 764 768 771 771 773 774 775 778 779 778 777 773 768 765 761 761 765 761 756 760 756 747 745 744 744 745 742 737 737 739 740 743 747 748 750 754 757 758 760 760 760 760 761 762 762 763 764 764 766 770 774 776 776 777 779 781 783 786 789 792 795 797 800 802 805 807 809 811 813 815 817 818 820 822 824 825 825 826 826 827 828
772 767 763 762 763 765 769 772 772 774 775 777 778 779 778 775 775 773 767 761 761 763 760 757 761 756 747 744 742 741 740 736 732 731 732 734 738 742 744 746 750 754 756 759 760 760 760 761 762 763 763 764 764 766 769 773 776 777 778 780 782 783 785 788 791 794 797 799 802 805 807 809 811 813 815 817 818 820 822 823 825 826 826 827 827 828
767 761 759 763 765 765 767 770 773 774 775 776 775 776 776 773 774 773 769 766 761 759 759 759 762 754 745 744 739 737 741 737 733 733 734 735 738 741 744 746 748 750 753 756 758 759 760 761 762 761 761 762 763 765 768 772 775 777 779 781 783 785 786 788 791 794 796 799 802 805 807 810 812 814 815 816 818 819 821 823 825 826 827 828 828 829
761 757 758 762 765 766 766 767 770 771 774 775 770 767 769 769 769 768 770 772 769 764 758 760 766 757 743 742 742 741 744 739 735 737 737 737 739 742 745 746 747 750 752 755 757 758 758 759 759 758 759 759 760 764 769 772 775 776 779 782 784 786 787 789 791 793 796 798 801 803 806 808 811 813 815 816 817 819 821 823 825 826 827 828 829 829
758 755 755 759 762 765 767 767 766 768 775 775 764 757 761 765 767 769 772 774 772 768 761 761 769 766 748 742 747 750 747 741 739 740 739 739 740 740 743 743 745 749 752 755 756 755 755 755 754 753 753 754 757 764 769 772 775 777 779 782 784 786 788 789 791 793 796 798 800 802 804 807 810 812 814 816 818 820 821 823 825 827 828 829 829 829
754 754 756 759 761 766 768 766 765 766 771 770 758 753 758 763 766 770 773 774 770 767 764 761 764 769 758 746 750 753 746 743 745 745 742 740 740 739 740 741 744 747 750 752 754 754 753 750 748 747 748 753 759 765 769 771 774 776 779 782 784 786 788 790 792 794 796 798 800 802 804 807 810 813 815 817 819 821 822 824 825 827 828 829 830 830
749 752 755 757 762 766 763 759 760 763 764 758 752 755 755 757 762 766 770 773 772 771 769 763 762 769 763 748 750 752 745 745 749 749 746 741 740 740 740 741 743 746 748 750 752 752 749 746 745 747 750 756 762 766 768 770 772 775 778 781 784 786 789 791 792 794 797 799 800 802 805 808 811 814 816 817 819 821 822 824 826 827 828 829 830 830
746 747 748 752 758 759 753 752 754 757 757 751 751 756 755 758 763 765 769 769 772 776 771 763 761 767 763 749 748 751 746 749 751 750 748 743 742 741 741 743 744 746 748 750 751 749 745 744 746 750 753 758 764 767 769 770 772 775 777 781 784 786 789 791 793 795 797 799 801 803 805 808 812 814 816 817 819 821 822 824 826 828 829 830 830 831
745 744 745 748 749 747 746 749 751 750 749 749 753 756 757 762 762 765 770 768 774 777 768 761 758 761 765 756 752 753 749 754 755 752 749 743 742 742 741 743 743 746 747 748 749 748 746 748 750 753 756 760 764 767 770 771 773 775 777 781 784 786 789 791 793 795 797 799 801 803 806 808 811 813 815 817 819 821 823 824 826 828 829 830 830 831
747 747 746 740 737 740 743 747 749 749 748 750 754 755 759 765 764 768 771 769 780 777 762 762 761 761 765 756 754 758 754 755 756 754 750 743 741 741 740 741 743 744 745 746 747 747 748 751 754 755 757 760 763 766 770 771 773 775 778 781 784 786 789 790 793 795 797 799 801 804 806 808 810 812 814 816 818 820 822 824 826 827 829 830 830 831
748 746 744 737 733 737 741 748 751 752 754 756 758 760 766 772 773 776 777 777 782 771 762 769 766 762 762 753 756 760 753 751 752 750 748 744 742 740 739 740 741 743 743 743 745 746 751 755 756 757 758 760 763 766 770 772 773 776 778 781 783 786 788 790 793 795 797 799 801 804 806 807 809 811 813 815 818 820 822 824 825 827 828 829 830 830
751 746 743 740 735 732 737 747 750 750 756 758 757 760 767 775 779 782 785 787 780 764 763 771 765 760 759 755 759 758 750 747 746 745 743 741 741 740 739 740 740 742 742 741 744 747 751 753 754 756 759 761 764 767 770 772 774 777 779 781 784 786 788 789 792 794 796 798 800 803 805 807 809 810 813 815 818 820 822 824 825 826 827 828 829 830
758 752 742 738 736 731 733 737 736 740 751 755 752 753 758 762 768 774 774 773 769 762 763 766 763 763 759 755 756 751 746 744 742 741 740 739 741 740 740 742 741 742 741 741 744 746 747 748 750 754 758 761 764 767 770 772 774 776 779 782 784 786 788 789 790 793 795 797 799 802 804 806 809 810 813 816 818 820 822 823 824 825 827 828 829 830
760 753 737 732 734 732 731 729 728 736 747 752 750 750 753 747 747 762 771 768 767 765 765 766 767 767 760 753 752 747 745 745 742 741 741 743 744 743 745 747 745 745 744 744 745 746 748 749 751 754 758 762 764 766 769 771 773 775 778 781 783 785 788 789 790 792 795 797 799 801 804 806 809 811 814 816 818 820 821 823 824 826 827 828 829 830
758 750 734 732 731 727 727 726 725 731 739 749 751 745 745 741 738 755 774 779 775 768 769 775 772 766 760 753 750 748 747 747 746 745 746 748 749 750 753 754 753 752 753 754 753 752 752 752 754 756 760 763 765 767 769 770 772 774 777 779 782 784 786 788 791 793 795 798 800 802 804 807 809 812 814 816 817 820 822 824 825 826 828 829 830 831
752 747 734 732 730 723 725 726 724 726 730 742 747 738 739 745 743 749 762 773 777 770 771 777 775 770 765 757 753 753 751 750 751 750 750 752 752 754 757 757 757 758 759 760 760 759 757 755 757 760 762 764 766 769 770 770 772 775 777 779 781 784 786 788 791 793 796 799 801 803 805 807 809 811 814 815 818 820 822 824 825 826 828 828 829 830
748 748 738 735 735 727 725 727 729 730 729 731 733 730 736 746 749 752 758 764 771 774 774 776 779 775 766 759 756 756 755 754 755 755 756 757 757 756 756 757 758 759 760 760 760 760 761 760 760 762 764 766 767 769 770 771 773 775 777 779 781 784 787 790 792 794 797 799 801 803 805 807 809 811 813 815 818 821 823 824 826 826 828 828 829 830
746 751 745 737 735 731 727 730 734 735 732 730 731 733 737 743 746 751 756 756 760 772 777 775 777 770 759 759 759 757 758 758 757 759 761 761 761 760 759 759 760 761 761 760 758 758 760 762 762 764 766 767 768 769 771 772 774 776 779 780 782 786 789 793 796 798 800 800 801 803 805 807 809 811 813 815 818 820 822 824 825 826 828 828 829 830
745 752 750 739 734 736 737 739 741 740 736 733 734 738 740 743 746 749 755 758 756 764 774 776 772 762 756 762 763 760 761 759 757 760 762 762 763 764 762 760 762 764 762 760 759 758 759 762 764 766 768 769 770 772 772 773 774 776 779 781 784 787 790 794 798 800 800 800 802 803 805 807 809 811 813 815 817 819 821 823 824 826 827 828 829 830
744 749 751 746 741 742 743 742 742 743 742 737 733 737 741 743 745 748 757 763 759 759 768 770 762 756 759 765 763 762 762 759 758 760 762 763 762 764 765 764 764 765 764 763 761 760 760 763 765 768 770 771 771 773 774 775 776 777 779 781 784 786 787 791 796 798 799 801 802 804 806 807 809 811 813 815 817 818 820 822 824 825 827 828 829 829
741 745 749 749 747 745 743 741 739 740 743 740 737 741 746 743 741 744 750 758 762 764 769 769 759 756 763 765 762 764 764 761 761 760 762 765 762 762 766 768 766 764 765 765 763 763 763 763 765 768 770 772 772 773 775 775 776 778 780 782 784 787 789 791 795 798 800 802 803 804 806 808 810 812 814 815 817 818 820 822 823 825 826 827 828 829
741 747 750 749 747 744 739 737 739 740 741 743 744 748 749 744 741 744 748 752 757 761 763 763 760 759 764 766 763 764 764 763 763 762 763 766 764 763 766 769 768 766 766 766 765 765 765 765 766 767 770 772 772 773 775 775 776 779 781 783 785 788 790 791 794 798 801 802 803 804 805 807 809 811 813 815 817 819 820 821 823 824 826 827 828 829
742 753 754 753 756 755 750 745 742 742 745 749 753 753 751 749 746 747 753 754 754 758 758 753 755 761 766 766 765 764 765 766 768 767 766 767 769 769 770 773 774 772 771 771 770 769 768 768 769 769 769 770 771 774 775 775 777 779 782 784 785 787 789 791 794 797 800 803 804 804 805 807 809 811 813 815 817 819 820 822 823 825 826 827 828 829
746 757 756 755 761 762 760 758 753 751 752 755 756 755 754 755 747 743 748 749 751 762 763 751 752 762 767 767 767 767 768 771 773 773 772 773 773 773 774 778 780 779 777 776 775 774 773 773 772 771 771 771 772 773 774 776 779 781 783 785 786 788 790 791 793 795 799 802 803 804 805 807 809 811 813 815 817 819 821 822 824 825 827 828 828 829
751 763 762 760 762 761 759 761 762 759 756 757 758 756 757 759 752 743 743 748 753 762 761 755 759 767 768 767 768 769 772 774 775 777 778 780 780 778 778 781 783 783 782 780 779 778 777 776 775 774 773 774 773 773 774 777 781 784 785 787 788 790 791 792 793 795 798 800 801 804 806 807 809 811 813 815 817 819 821 823 825 826 827 829 829 830
750 762 766 767 771 772 769 767 765 762 762 767 769 764 762 763 756 742 740 749 755 755 755 760 767 769 768 767 768 771 774 776 778 781 782 785 786 784 784 785 785 785 785 784 783 781 780 780 779 776 775 776 775 775 776 780 784 787 788 789 791 792 794 795 796 797 799 801 802 804 807 809 810 812 814 815 818 820 821 822 825 826 828 830 830 831
748 759 767 769 772 774 772 769 766 765 770 778 780 775 772 770 762 751 752 761 759 751 754 763 767 767 766 766 768 772 774 777 781 784 784 786 788 788 788 789 789 789 788 787 786 785 783 782 781 779 778 778 779 779 781 785 787 789 790 791 793 794 796 797 799 800 801 802 804 805 807 809 811 813 815 817 818 821 822 822 824 827 829 831 831 831
749 760 768 768 769 770 770 770 769 767 770 776 782 786 782 775 769 766 768 771 765 759 761 765 765 768 769 768 772 776 777 780 784 784 785 788 790 791 791 792 794 794 793 791 789 787 786 784 783 782 781 781 783 785 786 788 790 791 792 793 795 796 798 799 801 802 804 805 806 807 808 810 812 814 816 817 819 822 823 824 825 827 829 831 831 831
748 761 769 765 766 770 771 771 768 765 767 769 778 789 787 776 770 770 771 772 768 765 766 766 766 772 775 775 777 780 781 783 786 787 789 791 792 793 794 795 797 799 798 797 794 791 789 788 786 785 785 787 789 790 790 791 792 793 795 796 798 799 801 801 802 804 806 808 809 810 811 813 814 815 816 818 820 822 824 825 826 827 829 830 830 830
749 761 768 764 764 771 775 774 769 766 764 763 773 789 792 784 780 779 778 777 774 768 765 766 768 774 780 781 781 784 786 788 791 793 793 794 795 796 798 800 801 802 803 803 801 797 794 793 791 790 791 792 794 795 796 796 795 796 799 801 802 803 803 803 805 806 808 811 812 813 815 816 816 816 816 818 821 822 824 825 826 828 829 829 829 829
755 758 764 763 763 771 779 776 770 766 763 766 782 795 796 793 790 786 783 784 781 774 768 767 769 775 782 782 783 790 794 797 799 800 799 800 800 801 802 804 806 806 807 808 807 804 800 798 798 797 797 798 798 799 800 800 799 801 803 805 806 806 804 805 808 809 811 814 815 816 817 818 818 819 819 820 822 823 825 825 826 828 829 829 829 829
758 758 762 765 765 773 781 778 771 770 771 779 793 798 795 793 791 787 787 788 785 780 777 776 777 780 783 783 788 796 801 805 807 806 806 805 805 806 807 808 809 809 810 811 811 810 806 803 803 803 803 802 802 803 804 804 804 805 807 807 808 808 807 808 811 812 814 817 818 819 820 820 821 822 822 823 824 825 825 826 828 829 829 829 830 829
758 758 763 769 771 778 785 779 771 774 783 791 797 796 793 792 790 789 789 790 789 785 785 787 789 790 791 793 797 800 803 807 809 809 811 811 811 810 810 811 812 810 811 813 814 814 812 809 807 806 806 806 805 806 807 808 808 809 809 810 811 812 812 813 815 817 818 820 821 822 823 823 823 824 825 826 826 826 827 828 829 830 830 830 830 830
755 758 765 772 775 779 782 778 776 783 791 795 795 795 794 793 793 790 785 787 793 792 790 795 799 800 801 802 802 803 803 805 807 811 815 816 816 814 813 815 816 813 814 815 816 817 816 813 811 810 809 809 809 809 810 811 812 813 813 814 815 816 818 818 818 820 821 822 824 825 825 825 826 826 827 827 827 827 828 829 830 830 831 831 831 832
755 756 761 769 776 780 782 785 788 789 791 794 798 801 802 800 801 799 791 791 796 795 794 799 802 804 806 806 806 805 802 801 808 816 818 819 819 817 816 818 818 818 818 818 817 818 817 815 815 814 813 812 812 812 813 813 814 816 818 818 819 820 822 823 823 824 824 825 826 827 827 827 827 827 828 829 829 829 830 831 831 831 832 832 832 833
757 756 756 764 776 780 780 785 787 784 788 798 803 805 805 802 802 804 798 794 797 798 797 800 802 804 807 808 808 805 800 802 814 822 822 821 821 819 818 818 819 820 822 821 819 819 818 817 817 817 816 815 815 816 816 816 817 819 822 823 823 822 824 826 827 828 828 828 828 828 829 829 829 829 829 829 830 831 832 832 832 833 833 833 833 833
760 761 759 763 777 782 779 784 789 790 796 804 805 803 803 801 803 803 793 790 798 801 798 800 803 804 805 807 806 803 800 807 819 824 824 823 822 821 820 820 820 822 823 823 822 820 820 819 819 819 818 818 819 820 820 820 821 822 825 827 826 824 826 829 831 831 831 831 830 830 831 831 831 831 831 831 831 832 832 833 833 834 834 833 833 833
765 767 766 771 784 791 790 794 800 800 803 806 805 803 802 803 803 796 783 786 800 803 799 802 804 804 805 804 802 801 801 807 816 823 826 825 823 823 823 823 823 823 823 824 824 823 822 821 820 821 822 822 823 824 824 824 824 825 828 830 829 828 830 832 834 834 834 834 833 832 832 832 832 832 832 832 832 832 833 834 834 834 833 833 833 832
778 778 780 785 792 797 797 799 804 805 805 808 808 805 804 802 797 788 785 794 804 803 801 804 805 805 807 804 802 804 807 810 816 823 826 825 825 825 825 825 825 825 825 826 826 824 824 823 823 824 825 826 827 827 827 827 827 829 831 832 832 833 834 835 836 835 835 835 834 834 834 834 834 834 833 833 832 832 832 833 833 833 832 832 832 831
790 789 791 795 799 802 801 800 803 805 807 810 809 805 801 797 793 794 799 804 804 802 803 806 807 808 809 808 807 811 814 816 820 825 826 826 827 827 827 827 827 827 827 827 827 826 825 826 827 828 829 830 830 830 830 829 830 832 834 834 835 836 837 837 836 836 836 835 835 835 835 835 835 834 833 833 833 832 833 833 833 832 832 831 831 830
800 797 799 805 807 804 802 801 803 806 809 811 808 803 801 801 803 806 808 805 804 805 806 807 810 811 811 812 814 815 817 821 824 825 827 828 828 828 828 828 828 828 828 828 829 828 828 828 830 830 831 832 832 832 831 830 831 834 835 835 837 838 837 837 837 837 837 836 836 836 836 836 835 835 834 834 834 834 834 833 833 832 831 831 830 830
804 800 802 812 813 806 805 810 814 815 815 815 812 809 809 811 810 809 808 806 807 807 808 810 815 815 813 815 818 820 822 824 825 826 828 829 830 830 829 829 829 829 829 830 830 830 830 831 832 833 834 834 833 833 832 831 832 834 835 836 838 838 838 838 838 838 838 837 836 836 835 835 835 834 834 834 834 834 833 833 833 832 831 831 831 831
807 805 806 814 818 815 814 818 820 818 817 816 815 814 814 812 810 809 808 809 810 810 811 814 817 818 818 819 821 824 826 827 827 827 828 830 831 831 831 831 831 831 831 831 831 832 832 833 834 835 835 836 835 834 834 833 834 835 836 838 839 839 839 839 839 838 838 837 837 837 836 836 835 835 835 834 834 834 834 833 833 833 833 833 833 832
809 809 809 813 817 818 818 819 820 819 818 816 815 814 813 811 811 810 810 812 813 813 814 815 818 821 822 822 825 829 831 830 830 830 831 832 833 833 832 833 833 832 832 833 833 833 834 834 835 835 836 837 837 836 836 836 836 836 838 839 839 839 840 839 839 839 838 838 838 838 837 837 837 836 836 836 836 836 835 835 835 834 834 834 833 833
809 809 811 814 817 819 819 821 822 821 820 819 817 816 815 813 813 813 812 815 816 816 816 818 820 822 824 826 828 831 833 833 833 834 835 836 836 836 836 835 835 835 835 835 835 835 835 835 836 836 837 838 838 838 838 838 838 839 839 840 840 841 841 840 840 839 839 839 839 838 838 838 837 837 837 837 836 836 836 835 835 834 834 833 833 833
809 808 813 818 822 822 822 823 824 822 821 821 819 818 818 817 816 816 816 817 818 819 820 822 823 824 827 829 831 833 834 836 836 837 838 839 838 838 838 837 837 837 837 837 838 837 837 837 838 838 839 839 840 840 840 840 840 841 841 841 841 841 841 840 840 839 839 839 838 838 838 837 837 837 836 836 836 835 835 835 834 834 834 833 833 832
811 811 817 822 824 825 824 823 823 822 822 822 821 821 821 820 819 819 819 820 821 822 823 825 826 827 829 830 832 833 835 837 838 838 839 840 839 839 838 838 838 838 838 839 839 838 839 839 839 839 840 841 841 841 841 841 842 842 842 842 842 842 841 840 840 839 839 838 838 838 838 837 837 836 836 836 836 835 835 835 835 834 834 834 833 833
813 815 821 821 820 822 821 820 821 821 822 824 824 823 823 823 821 821 822 822 823 824 825 827 828 829 829 830 831 832 834 837 838 838 839 839 839 838 838 838 838 838 839 839 839 839 840 839 840 840 841 841 842 843 842 843 843 844 844 844 844 843 842 841 841 840 840 840 839 839 839 838 838 838 838 837 837 836 835 835 835 835 834 833 833 832
814 816 817 815 816 819 818 818 821 822 821 824 826 825 825 825 823 823 824 824 825 826 826 827 829 831 831 832 831 832 833 836 837 837 838 839 839 838 838 838 838 838 839 839 839 839 840 840 840 841 841 842 843 843 844 844 844 845 845 845 844 844 843 842 842 841 841 841 841 840 840 840 840 839 839 838 837 836 835 834 833 833 833 833 832 831